Regional Weather Roundup
Issued by NWS Midland/Odessa, TX

Skip options and go directly to product.
Home | Oldest Version | Previous Version | Current Version | All | Text Only | Save Text | Print | Product List | Glossary On

Skip product version selection by date and time.   
575
ASUS44 KMAF 271010
RWRMAF
MIDLAND AREA WEATHER ROUNDUP
NATIONAL WEATHER SERVICE MIDLAND TX
400 AM CST THU NOV 27 2014

...IN SOUTHWEST TEXAS AND SOUTHEAST NEW MEXICO...

CITY           SKY/WX    TMP DP  RH WIND       PRES   REMARKS
ALPINE         CLEAR     33  22  64 SW6       30.44S WCI  28
ANDREWS        FAIR      35  31  85 CALM      30.42R
ARTESIA        NOT AVBL
BIG SPRING     CLEAR     38  31  74 CALM      30.45R
CARLSBAD       CLEAR     38  27  64 S7        30.39S WCI  33
DRYDEN           N/A     46  31  55 N8        30.37R
FORT STOCKTON  PTCLDY    38  26  62 E3        30.39R
GUAD PASS      NOT AVBL
HOBBS          PTCLDY    36  30  80 CALM      30.41S
MARFA          CLEAR     28  19  69 NW7       30.41S WCI  21
MIDLAND AIRPK  PTCLDY    39  32  77 CALM      30.43R
MIDLAND INTL   PTCLDY    38  30  73 S3        30.41R
ODESSA         CLEAR     38  29  70 E7        30.42R WCI  33
PECOS          CLEAR     33  26  76 CALM      30.39S
PRESIDIO       FAIR      47  24  39 N6        30.34R
SEMINOLE       PTCLDY    35  29  81 CALM      30.42S
SNYDER         CLEAR     38  32  78 NE8       30.44R WCI  33
WINK           CLEAR     34  25  69 NE6       30.40R WCI  29
$$
...OTHER STATIONS IN TEXAS...

CITY           SKY/WX    TMP DP  RH WIND       PRES   REMARKS
ABILENE        CLEAR     39  30  70 N3        30.46R
AMARILLO       CLEAR     32  21  64 S13       30.42R WCI  22
AUSTIN         CLEAR     40  35  83 N8        30.41R WCI  34
BROWNSVILLE    FOG       48  47  96 CALM      30.32S VSB 1/4
CORPUS CHRISTI CLEAR     48  47  96 NW3       30.34R
DALLAS FTW     CLEAR     41  27  57 N8        30.47R WCI  36
DEL RIO        CLEAR     39  35  86 CALM      30.36R
EL PASO        CLEAR     37  19  48 CALM      30.36S
HOUSTON INT    CLEAR     46  39  76 CALM      30.39R
LUBBOCK        CLEAR     30  23  75 NE6       30.43R WCI  24
SAN ANGELO     CLEAR     33  30  88 CALM      30.43R
SAN ANTONIO    CLEAR     48  36  63 CALM      30.40R
WACO           CLEAR     37  33  85 SW5       30.45R WCI  33
WICHITA FALLS  NOT AVBL
$$
...OTHER LOCATIONS IN NEW MEXICO...

CITY           SKY/WX    TMP DP  RH WIND       PRES   REMARKS
ALAMAGORDO     PTCLDY    32  18  55 MISG      30.38R
ALBUQUERQUE    PTCLDY    38  23  55 E3        30.45R
CANNON AFB     CLEAR     32  23  71 CALM      30.42R
CLOVIS         CLEAR     30  21  69 S6        30.41S WCI  24
HOLLOMAN AFB   PTCLDY    34  19  54 E3        30.37R
ROSWELL        CLEAR     34  25  69 W3        30.40R
RUIDOSO        PTCLDY    41  18  38 CALM      30.45R
SANTA FE       PTCLDY    34  21  59 N12       30.44S WCI  25
TRUTH OR CONSE CLEAR     44  20  38 N8        30.40R WCI  39
TUCUMCARI      PTCLDY    27  23  85 CALM      30.39S
$$

USA.gov is the U.S. government's official web portal to all federal, state and local government web resources and services.